Anaktuvuk Pass, AK

6:18 PM AKST on November 18, 2017 (GMT -0900)
Anaktuvuk Pass

Weather History for PAKP - September, 2013

Change the Weather History Date:

Friday, September 20, 2013

  Actual Average Record
Temperature  
Mean Temperature 18 °F -  
Max Temperature 26 °F 33 °F 50 °F (2001)
Min Temperature 10 °F 22 °F 10 °F (2013)
Degree Days  
Heating Degree Days 47    
Moisture  
Dew Point 12 °F    
Average Humidity 69    
Maximum Humidity 80    
Minimum Humidity 54    
Precipitation  
Precipitation 0.00 in - - ()
Sea Level Pressure  
Sea Level Pressure 29.32 in    
Wind  
Wind Speed 6 mph (NNE)    
Max Wind Speed 10 mph    
Max Gust Speed -    
Visibility 8 miles    
Events      
Averages and records for this station are not official NWS values.
T = Trace of Precipitation, MM = Missing Value Source: NWS Daily Summary

Daily Weather History Graph

Daily Weather History Graph

Search for Another Location

Airport or City:

Trip Planner

Search our weather history database for the weather conditions in past years. The results will help you decide how hot, cold, wet, or windy it might be!

Date:

Astronomy

Sep. 20, 2013 Rise Set
Actual Time 7:42 AM AKDT 8:15 PM AKDT
Civil Twilight 6:45 AM AKDT 9:11 PM AKDT
Nautical Twilight 5:33 AM AKDT 10:23 PM AKDT
Astronomical Twilight 3:58 AM AKDT 11:55 PM AKDT
Moon 7:42 PM AKDT (9/20) 10:11 AM AKDT (9/20)
Length of Visible Light 14h 25m
Length of Day
12h 32m
Full, 98% of the Moon is Illuminated
Sep 20
Full
Sep 26
Last Quarter
Oct 4
New
Oct 11
First Quarter
Oct 18
Full

Hourly Weather History & Observations

Time (AKDT) Temp. Windchill Dew Point Humidity Pressure Visibility Wind Dir Wind Speed Gust Speed Precip Events Conditions
12:16 AM 23.0 °F 14.7 °F 15.8 °F 74% 29.50 in 3.0 mi NE 6.9 mph - N/A   Overcast
12:36 AM 23.0 °F 13.9 °F 15.8 °F 74% 29.50 in 2.0 mi NE 8.1 mph - N/A   Overcast
12:56 AM 23.0 °F 13.9 °F 15.8 °F 74% 29.50 in 2.5 mi NE 8.1 mph - N/A   Overcast
1:16 AM 23.0 °F 14.7 °F 15.8 °F 74% 29.50 in 3.0 mi NE 6.9 mph - N/A   Overcast
1:36 AM 23.0 °F 13.1 °F 15.8 °F 74% 29.49 in 2.0 mi NE 9.2 mph - N/A   Overcast
1:56 AM 23.0 °F 15.8 °F 15.8 °F 74% 29.49 in 1.5 mi NNE 5.8 mph - N/A   Overcast
2:16 AM 23.0 °F 15.8 °F 15.8 °F 74% 29.48 in 1.8 mi NE 5.8 mph - N/A   Overcast
2:36 AM 23.0 °F 17.0 °F 15.8 °F 74% 29.48 in 2.5 mi NNE 4.6 mph - N/A   Overcast
2:56 AM 23.0 °F 15.8 °F 15.8 °F 74% 29.47 in 2.5 mi NE 5.8 mph - N/A   Overcast
3:16 AM 23.0 °F 13.9 °F 15.8 °F 74% 29.47 in 1.5 mi NE 8.1 mph - N/A   Overcast
3:36 AM 21.2 °F 14.9 °F 15.8 °F 80% 29.46 in 3.0 mi North 4.6 mph - N/A   Overcast
3:56 AM 21.2 °F 12.6 °F 15.8 °F 80% 29.46 in 5.0 mi NE 6.9 mph - N/A   Overcast
4:16 AM 21.2 °F 13.6 °F 15.8 °F 80% 29.45 in 2.5 mi NE 5.8 mph - N/A   Overcast
4:36 AM 21.2 °F 14.9 °F 15.8 °F 80% 29.44 in 3.0 mi NE 4.6 mph - N/A   Overcast
4:56 AM 21.2 °F 14.9 °F 15.8 °F 80% 29.44 in 8.0 mi NE 4.6 mph - N/A   Overcast
5:16 AM 21.2 °F 12.6 °F 15.8 °F 80% 29.43 in 8.0 mi ENE 6.9 mph - N/A   Overcast
5:36 AM 21.2 °F 13.6 °F 15.8 °F 80% 29.43 in 6.0 mi NE 5.8 mph - N/A   Overcast
5:56 AM 21.2 °F 14.9 °F 15.8 °F 80% 29.42 in 5.0 mi NE 4.6 mph - N/A   Overcast
6:16 AM 21.2 °F 13.6 °F 15.8 °F 80% 29.42 in 4.0 mi NE 5.8 mph - N/A   Overcast
6:36 AM 21.2 °F 13.6 °F 14.0 °F 74% 29.41 in 4.0 mi NE 5.8 mph - N/A   Overcast
6:56 AM 21.2 °F 14.9 °F 14.0 °F 74% 29.41 in 5.0 mi NNE 4.6 mph - N/A   Overcast
7:16 AM 21.2 °F 13.6 °F 14.0 °F 74% 29.40 in 7.0 mi North 5.8 mph - N/A   Overcast
7:36 AM 21.2 °F 16.4 °F 15.8 °F 80% 29.40 in 2.5 mi North 3.5 mph - N/A   Overcast
7:56 AM 21.2 °F 14.9 °F 15.8 °F 80% 29.39 in 1.5 mi North 4.6 mph - N/A   Overcast
8:16 AM 21.2 °F 14.9 °F 15.8 °F 80% 29.39 in 2.5 mi North 4.6 mph - N/A   Overcast
8:36 AM 21.2 °F 16.4 °F 14.0 °F 74% 29.38 in 5.0 mi North 3.5 mph - N/A   Overcast
8:56 AM 21.2 °F - 14.0 °F 74% 29.38 in 6.0 mi Calm Calm - N/A   Overcast
9:16 AM 21.2 °F 13.6 °F 14.0 °F 74% 29.37 in 9.0 mi North 5.8 mph - N/A   Overcast
9:36 AM 21.2 °F 14.9 °F 14.0 °F 74% 29.36 in 10.0 mi North 4.6 mph - N/A   Mostly Cloudy
9:56 AM 21.2 °F 16.4 °F 15.8 °F 80% 29.36 in 10.0 mi NE 3.5 mph - N/A   Overcast
10:16 AM 23.0 °F 15.8 °F 14.0 °F 68% 29.35 in 10.0 mi NNE 5.8 mph - N/A   Mostly Cloudy
10:36 AM 23.0 °F 14.7 °F 14.0 °F 68% 29.35 in 10.0 mi NE 6.9 mph - N/A   Partly Cloudy
10:56 AM 23.0 °F 17.0 °F 14.0 °F 68% 29.34 in 10.0 mi NNE 4.6 mph - N/A   Clear
11:16 AM 23.0 °F 15.8 °F 15.8 °F 74% 29.34 in 10.0 mi NNE 5.8 mph - N/A   Clear
11:36 AM 24.8 °F 19.1 °F 14.0 °F 64% 29.33 in 10.0 mi NNE 4.6 mph - N/A   Clear
11:56 AM 24.8 °F 16.9 °F 12.2 °F 59% 29.33 in 10.0 mi ENE 6.9 mph - N/A   Clear
12:16 PM 24.8 °F 19.1 °F 14.0 °F 64% 29.32 in 10.0 mi NE 4.6 mph - N/A   Clear
12:36 PM 24.8 °F 19.1 °F 12.2 °F 59% 29.31 in 10.0 mi ENE 4.6 mph - N/A   Clear
12:56 PM 24.8 °F 19.1 °F 12.2 °F 59% 29.31 in 10.0 mi ENE 4.6 mph - N/A   Clear
1:16 PM 24.8 °F 17.9 °F 12.2 °F 59% 29.30 in 10.0 mi ENE 5.8 mph - N/A   Clear
1:36 PM 24.8 °F 19.1 °F 12.2 °F 59% 29.29 in 10.0 mi NNE 4.6 mph - N/A   Clear
1:56 PM 26.6 °F 20.0 °F 12.2 °F 55% 29.28 in 10.0 mi NE 5.8 mph - N/A   Clear
2:16 PM 26.6 °F 20.0 °F 12.2 °F 55% 29.28 in 10.0 mi NE 5.8 mph - N/A   Partly Cloudy
2:36 PM 26.6 °F 19.1 °F 12.2 °F 55% 29.27 in 10.0 mi NE 6.9 mph - N/A   Clear
2:56 PM 26.6 °F 18.2 °F 12.2 °F 55% 29.27 in 10.0 mi NNE 8.1 mph - N/A   Clear
3:16 PM 26.6 °F 19.1 °F 12.2 °F 55% 29.26 in 10.0 mi NE 6.9 mph - N/A   Clear
3:36 PM 26.6 °F 21.2 °F 12.2 °F 55% 29.25 in 10.0 mi NNE 4.6 mph - N/A   Clear
3:56 PM 26.6 °F 20.0 °F 12.2 °F 55% 29.24 in 10.0 mi NNE 5.8 mph - N/A   Clear
4:16 PM 26.6 °F 21.2 °F 12.2 °F 55% 29.23 in 10.0 mi ENE 4.6 mph - N/A   Clear
4:36 PM 26.6 °F 20.0 °F 12.2 °F 55% 29.23 in 10.0 mi NE 5.8 mph - N/A   Clear
4:56 PM 26.6 °F 20.0 °F 12.2 °F 55% 29.22 in 10.0 mi ENE 5.8 mph - N/A   Clear
5:16 PM 26.6 °F 16.8 °F 12.2 °F 55% 29.22 in 10.0 mi NE 10.4 mph - N/A   Clear
5:36 PM 24.8 °F 15.3 °F 12.2 °F 59% 29.21 in 10.0 mi NE 9.2 mph - N/A   Clear
5:56 PM 24.8 °F 15.3 °F 12.2 °F 59% 29.21 in 10.0 mi NE 9.2 mph - N/A   Clear
6:16 PM 24.8 °F 16.1 °F 12.2 °F 59% 29.21 in 10.0 mi NE 8.1 mph - N/A   Clear
6:36 PM 24.8 °F 16.1 °F 10.4 °F 54% 29.20 in 10.0 mi NE 8.1 mph - N/A   Clear
6:56 PM 21.2 °F 12.6 °F 10.4 °F 63% 29.20 in 10.0 mi NE 6.9 mph - N/A   Clear
7:16 PM 19.4 °F 11.5 °F 10.4 °F 68% 29.19 in 10.0 mi NNE 5.8 mph - N/A   Clear
7:36 PM 19.4 °F 12.8 °F 8.6 °F 63% 29.19 in 10.0 mi NNE 4.6 mph - N/A   Clear
7:56 PM 17.6 °F 10.7 °F 10.4 °F 73% 29.19 in 10.0 mi NNE 4.6 mph - N/A   Clear
8:16 PM 17.6 °F 10.7 °F 8.6 °F 68% 29.19 in 10.0 mi North 4.6 mph - N/A   Clear
8:36 PM 15.8 °F 8.6 °F 8.6 °F 73% 29.19 in 10.0 mi North 4.6 mph - N/A   Clear
8:56 PM 15.8 °F 10.2 °F 8.6 °F 73% 29.18 in 10.0 mi North 3.5 mph - N/A   Clear
9:16 PM 14.0 °F 8.2 °F 6.8 °F 73% 29.18 in 10.0 mi North 3.5 mph - N/A   Partly Cloudy
9:36 PM 14.0 °F 6.5 °F 6.8 °F 73% 29.17 in 10.0 mi North 4.6 mph - N/A   Mostly Cloudy
9:56 PM 14.0 °F - 6.8 °F 73% 29.17 in 10.0 mi Calm Calm - N/A   Scattered Clouds
10:16 PM 10.4 °F - 3.2 °F 73% 29.16 in 10.0 mi Calm Calm - N/A   Clear
10:36 PM 10.4 °F - 5.0 °F 79% 29.16 in 10.0 mi Calm Calm - N/A   Partly Cloudy
10:56 PM 12.2 °F - 5.0 °F 73% 29.15 in 10.0 mi Calm Calm - N/A   Scattered Clouds
11:16 PM 12.2 °F 6.1 °F 5.0 °F 73% 29.14 in 10.0 mi NNW 3.5 mph - N/A   Partly Cloudy
11:36 PM 10.4 °F - 1.4 °F 67% 29.14 in 10.0 mi Calm Calm - N/A   Clear
11:56 PM 10.4 °F - 3.2 °F 73% 29.13 in 10.0 mi Calm Calm - N/A   Clear